TimeCDT,TemperatureF,Dew PointF,Humidity,Sea Level PressureIn,VisibilityMPH,Wind Direction,Wind SpeedMPH,Gust SpeedMPH,PrecipitationIn,Events,Conditions,WindDirDegrees,DateUTC
12:58 AM,71.2,48.0,44,30.01,10.0,ESE,3.5,-,N/A,,Clear,110,2013-09-15 05:58:00
1:58 AM,69.1,48.9,49,30.01,10.0,ENE,4.6,-,N/A,,Clear,60,2013-09-15 06:58:00
2:58 AM,68.2,48.9,50,29.99,10.0,East,4.6,-,N/A,,Clear,90,2013-09-15 07:58:00
3:58 AM,66.6,48.6,52,30.00,10.0,SE,4.6,-,N/A,,Clear,130,2013-09-15 08:58:00
4:58 AM,64.8,48.9,56,30.01,10.0,Calm,Calm,-,N/A,,Clear,0,2013-09-15 09:58:00
5:58 AM,64.8,49.8,58,30.03,10.0,NNE,1.2,-,N/A,,Clear,20,2013-09-15 10:58:00
6:58 AM,62.4,51.3,67,30.04,10.0,NNE,3.5,-,N/A,,Clear,30,2013-09-15 11:58:00
7:58 AM,64.6,51.6,63,30.05,10.0,North,3.5,-,N/A,,Clear,10,2013-09-15 12:58:00
8:58 AM,69.8,51.1,51,30.06,10.0,Variable,2.3,-,N/A,,Clear,0,2013-09-15 13:58:00
9:58 AM,77.0,52.0,42,30.08,10.0,ESE,2.3,-,N/A,,Clear,120,2013-09-15 14:58:00
10:58 AM,82.4,55.6,40,30.08,10.0,Variable,4.6,-,N/A,,Clear,0,2013-09-15 15:58:00
11:58 AM,87.6,60.6,40,30.06,10.0,South,5.8,-,N/A,,Clear,190,2013-09-15 16:58:00
12:58 PM,88.9,63.5,43,30.05,10.0,Calm,Calm,-,N/A,,Clear,0,2013-09-15 17:58:00
1:58 PM,91.8,64.0,40,30.03,10.0,WSW,5.8,-,N/A,,Clear,240,2013-09-15 18:58:00
2:58 PM,93.7,61.2,34,30.01,10.0,WNW,4.6,-,N/A,,Clear,290,2013-09-15 19:58:00
3:58 PM,94.5,62.1,34,29.99,10.0,South,4.6,-,N/A,,Partly Cloudy,180,2013-09-15 20:58:00
4:58 PM,94.5,60.1,32,29.98,10.0,ENE,4.6,-,N/A,,Partly Cloudy,60,2013-09-15 21:58:00
5:58 PM,93.4,59.0,32,29.99,10.0,East,6.9,-,N/A,,Clear,80,2013-09-15 22:58:00
6:58 PM,88.7,60.6,39,29.99,10.0,ENE,3.5,-,N/A,,Clear,70,2013-09-15 23:58:00
7:58 PM,85.1,59.5,42,29.99,10.0,ENE,4.6,-,N/A,,Clear,70,2013-09-16 00:58:00
8:58 PM,83.3,59.4,44,30.02,10.0,East,4.6,-,N/A,,Clear,90,2013-09-16 01:58:00
9:58 PM,79.9,59.9,50,30.03,10.0,ESE,4.6,-,N/A,,Clear,110,2013-09-16 02:58:00
10:58 PM,80.6,58.1,46,30.04,10.0,East,5.8,-,N/A,,Clear,90,2013-09-16 03:58:00
11:58 PM,79.7,56.1,44,30.04,10.0,East,4.6,-,N/A,,Clear,90,2013-09-16 04:58:00